Time,TemperatureF,DewpointF,PressureIn,WindDirection,WindDirectionDegrees,WindSpeedMPH,WindSpeedGustMPH,Humidity,HourlyPrecipIn,Conditions,Clouds,dailyrainin,SoftwareType,DateUTC
2013-01-25 00:00:00,11.2,-9.1,29.69,North,0,0.0,0.0,39,0.00,,,0.00,WUHU216HW,2013-01-25 05:00:00,
2013-01-25 00:01:00,11.2,-9.1,29.69,North,0,0.0,0.0,39,0.00,,,0.00,WUHU216HW,2013-01-25 05:01:00,
2013-01-25 00:02:00,11.2,-9.1,29.69,North,0,0.0,0.0,39,0.00,,,0.00,WUHU216HW,2013-01-25 05:02:00,
2013-01-25 00:07:00,11.2,-9.1,29.69,North,0,0.0,0.0,39,0.00,,,0.00,WUHU216HW,2013-01-25 05:07:00,
2013-01-25 00:29:00,10.4,-9.2,29.71,North,0,0.0,0.0,40,0.00,,,0.00,WUHU216HW,2013-01-25 05:29:00,
2013-01-25 00:34:00,10.4,-9.2,29.71,North,0,0.0,0.0,40,0.00,,,0.00,WUHU216HW,2013-01-25 05:34:00,
2013-01-25 00:59:00,10.3,-8.4,29.71,North,0,0.0,0.0,42,0.00,,,0.00,WUHU216HW,2013-01-25 05:59:00,
2013-01-25 01:04:00,10.3,-8.4,29.71,North,0,0.0,0.0,42,0.00,,,0.00,WUHU216HW,2013-01-25 06:04:00,
2013-01-25 01:29:00,9.9,-7.8,29.72,North,0,0.0,0.0,44,0.00,,,0.00,WUHU216HW,2013-01-25 06:29:00,
2013-01-25 01:34:00,9.9,-7.8,29.72,North,0,0.0,0.0,44,0.00,,,0.00,WUHU216HW,2013-01-25 06:34:00,
2013-01-25 01:59:00,9.7,-7.6,29.72,North,0,0.0,0.0,45,0.00,,,0.00,WUHU216HW,2013-01-25 06:59:00,
2013-01-25 02:04:00,9.7,-7.6,29.72,North,0,0.0,0.0,45,0.00,,,0.00,WUHU216HW,2013-01-25 07:04:00,
2013-01-25 02:29:00,9.5,-7.7,29.73,North,0,0.0,0.0,45,0.00,,,0.00,WUHU216HW,2013-01-25 07:29:00,
2013-01-25 02:34:00,9.5,-7.7,29.73,North,0,0.0,0.0,45,0.00,,,0.00,WUHU216HW,2013-01-25 07:34:00,
2013-01-25 02:59:00,9.4,-7.8,29.74,North,0,0.0,0.0,45,0.00,,,0.00,WUHU216HW,2013-01-25 07:59:00,
2013-01-25 03:04:00,9.4,-7.8,29.74,North,0,0.0,0.0,45,0.00,,,0.00,WUHU216HW,2013-01-25 08:04:00,
2013-01-25 03:29:00,9.4,-6.9,29.74,North,0,0.0,0.0,47,0.00,,,0.00,WUHU216HW,2013-01-25 08:29:00,
2013-01-25 03:34:00,9.4,-6.9,29.74,North,0,0.0,0.0,47,0.00,,,0.00,WUHU216HW,2013-01-25 08:34:00,
2013-01-25 04:00:00,9.4,-6.5,29.74,North,0,0.0,0.0,48,0.00,,,0.00,WUHU216HW,2013-01-25 09:00:00,
2013-01-25 04:05:00,9.4,-6.5,29.74,North,0,0.0,0.0,48,0.00,,,0.00,WUHU216HW,2013-01-25 09:05:00,
2013-01-25 04:30:00,9.2,-6.6,29.74,North,0,0.0,0.0,48,0.00,,,0.00,WUHU216HW,2013-01-25 09:30:00,
2013-01-25 04:35:00,9.2,-6.6,29.74,North,0,0.0,0.0,48,0.00,,,0.00,WUHU216HW,2013-01-25 09:35:00,
2013-01-25 05:00:00,8.8,-6.6,29.75,North,0,0.0,0.0,49,0.00,,,0.00,WUHU216HW,2013-01-25 10:00:00,
2013-01-25 05:05:00,8.8,-6.6,29.75,North,0,0.0,0.0,49,0.00,,,0.00,WUHU216HW,2013-01-25 10:05:00,
2013-01-25 05:30:00,8.3,-7.1,29.76,North,0,0.0,0.0,49,0.00,,,0.00,WUHU216HW,2013-01-25 10:30:00,
2013-01-25 05:35:00,8.3,-7.1,29.76,North,0,0.0,0.0,49,0.00,,,0.00,WUHU216HW,2013-01-25 10:35:00,
2013-01-25 05:59:00,7.7,-8.0,29.77,North,0,0.0,0.0,48,0.00,,,0.00,WUHU216HW,2013-01-25 10:59:00,
2013-01-25 06:04:00,7.7,-8.0,29.77,North,0,0.0,0.0,48,0.00,,,0.00,WUHU216HW,2013-01-25 11:04:00,
2013-01-25 06:29:00,8.3,-8.0,29.77,North,0,0.0,0.0,47,0.00,,,0.00,WUHU216HW,2013-01-25 11:29:00,
2013-01-25 06:34:00,8.3,-8.0,29.77,North,0,0.0,0.0,47,0.00,,,0.00,WUHU216HW,2013-01-25 11:34:00,
2013-01-25 06:59:00,8.5,-7.8,29.76,North,0,0.0,0.0,47,0.00,,,0.00,WUHU216HW,2013-01-25 11:59:00,
2013-01-25 07:04:00,8.5,-7.8,29.76,North,0,0.0,0.0,47,0.00,,,0.00,WUHU216HW,2013-01-25 12:04:00,
2013-01-25 07:29:00,8.8,-7.5,29.77,North,0,0.0,0.0,47,0.00,,,0.00,WUHU216HW,2013-01-25 12:29:00,
2013-01-25 07:34:00,8.8,-7.5,29.77,North,0,0.0,0.0,47,0.00,,,0.00,WUHU216HW,2013-01-25 12:34:00,
2013-01-25 07:59:00,9.9,-6.4,29.77,North,0,0.0,0.0,47,0.00,,,0.00,WUHU216HW,2013-01-25 12:59:00,
2013-01-25 08:04:00,9.9,-6.4,29.77,North,0,0.0,0.0,47,0.00,,,0.00,WUHU216HW,2013-01-25 13:04:00,
2013-01-25 08:29:00,10.8,-6.5,29.78,North,0,0.0,0.0,45,0.00,,,0.00,WUHU216HW,2013-01-25 13:29:00,
2013-01-25 08:34:00,10.8,-6.5,29.78,North,0,0.0,0.0,45,0.00,,,0.00,WUHU216HW,2013-01-25 13:34:00,
2013-01-25 08:59:00,12.1,-6.3,29.77,North,0,0.0,0.0,43,0.00,,,0.00,WUHU216HW,2013-01-25 13:59:00,
2013-01-25 09:04:00,12.1,-6.3,29.77,North,0,0.0,0.0,43,0.00,,,0.00,WUHU216HW,2013-01-25 14:04:00,
2013-01-25 09:29:00,13.9,-5.1,29.77,North,0,0.0,0.0,42,0.00,,,0.00,WUHU216HW,2013-01-25 14:29:00,
2013-01-25 09:34:00,13.9,-5.1,29.77,North,0,0.0,0.0,42,0.00,,,0.00,WUHU216HW,2013-01-25 14:34:00,
2013-01-25 09:59:00,15.3,-4.8,29.78,North,0,0.0,0.0,40,0.00,,,0.00,WUHU216HW,2013-01-25 14:59:00,
2013-01-25 10:04:00,15.3,-4.8,29.78,North,0,0.0,0.0,40,0.00,,,0.00,WUHU216HW,2013-01-25 15:04:00,
2013-01-25 10:30:00,16.7,-3.4,29.78,North,0,0.0,0.0,40,0.00,,,0.00,WUHU216HW,2013-01-25 15:30:00,
2013-01-25 10:34:00,16.7,-3.4,29.78,North,0,0.0,0.0,40,0.00,,,0.00,WUHU216HW,2013-01-25 15:34:00,
2013-01-25 10:59:00,18.2,-3.2,29.77,North,0,0.0,0.0,38,0.00,,,0.00,WUHU216HW,2013-01-25 15:59:00,
2013-01-25 11:04:00,18.2,-3.2,29.77,North,0,0.0,0.0,38,0.00,,,0.00,WUHU216HW,2013-01-25 16:04:00,
2013-01-25 11:29:00,19.3,-2.9,29.76,North,0,0.0,0.0,37,0.00,,,0.00,WUHU216HW,2013-01-25 16:29:00,
2013-01-25 11:34:00,19.3,-2.9,29.76,North,0,0.0,0.0,37,0.00,,,0.00,WUHU216HW,2013-01-25 16:34:00,
2013-01-25 11:59:00,20.3,-3.8,29.74,North,0,0.0,0.0,34,0.00,,,0.00,WUHU216HW,2013-01-25 16:59:00,
2013-01-25 12:04:00,20.3,-3.8,29.74,North,0,0.0,0.0,34,0.00,,,0.00,WUHU216HW,2013-01-25 17:04:00,
2013-01-25 12:29:00,21.6,-3.2,29.73,North,0,0.0,0.0,33,0.00,,,0.00,WUHU216HW,2013-01-25 17:29:00,
2013-01-25 12:35:00,21.6,-3.2,29.73,North,0,0.0,0.0,33,0.00,,,0.00,WUHU216HW,2013-01-25 17:35:00,
2013-01-25 12:59:00,23.6,-2.7,29.71,North,0,0.0,0.0,31,0.00,,,0.00,WUHU216HW,2013-01-25 17:59:00,
2013-01-25 13:04:00,23.6,-2.7,29.71,North,0,0.0,0.0,31,0.00,,,0.00,WUHU216HW,2013-01-25 18:04:00,
2013-01-25 13:29:00,26.3,-2.7,29.70,North,0,0.0,0.0,28,0.00,,,0.00,WUHU216HW,2013-01-25 18:29:00,
2013-01-25 13:34:00,26.3,-2.7,29.70,North,0,0.0,0.0,28,0.00,,,0.00,WUHU216HW,2013-01-25 18:34:00,
2013-01-25 13:59:00,27.4,-2.6,29.69,North,0,0.0,0.0,27,0.00,,,0.00,WUHU216HW,2013-01-25 18:59:00,
2013-01-25 14:04:00,27.4,-2.6,29.69,North,0,0.0,0.0,27,0.00,,,0.00,WUHU216HW,2013-01-25 19:04:00,
2013-01-25 14:29:00,24.3,-3.5,29.67,North,0,0.0,0.0,29,0.00,,,0.00,WUHU216HW,2013-01-25 19:29:00,
2013-01-25 14:34:00,24.3,-3.5,29.67,North,0,0.0,0.0,29,0.00,,,0.00,WUHU216HW,2013-01-25 19:34:00,
2013-01-25 14:59:00,24.7,-2.3,29.66,North,0,0.0,0.0,30,0.00,,,0.00,WUHU216HW,2013-01-25 19:59:00,
2013-01-25 15:04:00,24.7,-2.3,29.66,North,0,0.0,0.0,30,0.00,,,0.00,WUHU216HW,2013-01-25 20:04:00,
2013-01-25 15:29:00,24.5,-3.3,29.65,North,0,0.0,0.0,29,0.00,,,0.00,WUHU216HW,2013-01-25 20:29:00,
2013-01-25 15:34:00,24.5,-3.3,29.65,North,0,0.0,0.0,29,0.00,,,0.00,WUHU216HW,2013-01-25 20:34:00,
2013-01-25 16:00:00,23.9,-3.0,29.65,North,0,0.0,0.0,30,0.00,,,0.00,WUHU216HW,2013-01-25 21:00:00,
2013-01-25 16:05:00,23.9,-3.0,29.65,North,0,0.0,0.0,30,0.00,,,0.00,WUHU216HW,2013-01-25 21:05:00,
2013-01-25 16:30:00,22.9,-2.7,29.66,North,0,0.0,0.0,32,0.00,,,0.00,WUHU216HW,2013-01-25 21:30:00,
2013-01-25 16:35:00,22.9,-2.7,29.66,North,0,0.0,0.0,32,0.00,,,0.00,WUHU216HW,2013-01-25 21:35:00,
2013-01-25 16:59:00,22.0,-3.5,29.66,North,0,0.0,0.0,32,0.00,,,0.00,WUHU216HW,2013-01-25 21:59:00,
2013-01-25 17:04:00,22.0,-3.5,29.66,North,0,0.0,0.0,32,0.00,,,0.00,WUHU216HW,2013-01-25 22:04:00,
2013-01-25 17:29:00,21.4,-4.0,29.66,North,0,0.0,0.0,32,0.00,,,0.00,WUHU216HW,2013-01-25 22:29:00,
2013-01-25 17:34:00,21.4,-4.0,29.66,North,0,0.0,0.0,32,0.00,,,0.00,WUHU216HW,2013-01-25 22:34:00,
2013-01-25 17:59:00,20.9,-3.2,29.66,North,0,0.0,0.0,34,0.00,,,0.00,WUHU216HW,2013-01-25 22:59:00,
2013-01-25 18:04:00,20.9,-3.2,29.66,North,0,0.0,0.0,34,0.00,,,0.00,WUHU216HW,2013-01-25 23:04:00,
2013-01-25 18:29:00,20.5,-2.3,29.64,North,0,0.0,0.0,36,0.00,,,0.00,WUHU216HW,2013-01-25 23:29:00,
2013-01-25 18:34:00,20.5,-2.3,29.64,North,0,0.0,0.0,36,0.00,,,0.00,WUHU216HW,2013-01-25 23:34:00,
2013-01-25 18:59:00,20.3,-1.9,29.63,North,0,0.0,0.0,37,0.00,,,0.00,WUHU216HW,2013-01-25 23:59:00,
2013-01-25 19:04:00,20.3,-1.9,29.63,North,0,0.0,0.0,37,0.00,,,0.00,WUHU216HW,2013-01-26 00:04:00,
2013-01-25 19:29:00,20.3,-1.3,29.63,North,0,0.0,0.0,38,0.00,,,0.00,WUHU216HW,2013-01-26 00:29:00,
2013-01-25 19:34:00,20.3,-1.3,29.63,North,0,0.0,0.0,38,0.00,,,0.00,WUHU216HW,2013-01-26 00:34:00,
2013-01-25 19:59:00,20.3,-1.3,29.63,North,0,0.0,0.0,38,0.00,,,0.00,WUHU216HW,2013-01-26 00:59:00,
2013-01-25 20:04:00,20.3,-1.3,29.63,North,0,0.0,0.0,38,0.00,,,0.00,WUHU216HW,2013-01-26 01:04:00,
2013-01-25 20:29:00,20.5,-1.2,29.61,North,0,0.0,0.0,38,0.00,,,0.00,WUHU216HW,2013-01-26 01:29:00,
2013-01-25 20:34:00,20.5,-1.2,29.61,North,0,0.0,0.0,38,0.00,,,0.00,WUHU216HW,2013-01-26 01:34:00,
2013-01-25 20:59:00,20.3,-0.7,29.60,North,0,0.0,0.0,39,0.00,,,0.00,WUHU216HW,2013-01-26 01:59:00,
2013-01-25 21:04:00,20.3,-0.7,29.60,North,0,0.0,0.0,39,0.00,,,0.00,WUHU216HW,2013-01-26 02:04:00,
2013-01-25 21:29:00,20.2,-0.9,29.59,North,0,0.0,0.0,39,0.00,,,0.00,WUHU216HW,2013-01-26 02:29:00,
2013-01-25 21:34:00,20.2,-0.9,29.59,North,0,0.0,0.0,39,0.00,,,0.00,WUHU216HW,2013-01-26 02:34:00,
2013-01-25 21:59:00,20.0,-1.0,29.59,North,0,0.0,0.0,39,0.00,,,0.00,WUHU216HW,2013-01-26 02:59:00,
2013-01-25 22:04:00,20.0,-1.0,29.59,North,0,0.0,0.0,39,0.00,,,0.00,WUHU216HW,2013-01-26 03:04:00,
2013-01-25 22:29:00,19.8,-0.1,29.58,North,0,0.0,0.0,41,0.00,,,0.00,WUHU216HW,2013-01-26 03:29:00,
2013-01-25 22:34:00,19.8,-0.1,29.58,North,0,0.0,0.0,41,0.00,,,0.00,WUHU216HW,2013-01-26 03:34:00,
2013-01-25 22:59:00,20.0,0.6,29.58,North,0,0.0,0.0,42,0.00,,,0.00,WUHU216HW,2013-01-26 03:59:00,
2013-01-25 23:04:00,20.0,0.6,29.58,North,0,0.0,0.0,42,0.00,,,0.00,WUHU216HW,2013-01-26 04:04:00,
2013-01-25 23:29:00,19.6,2.5,29.58,North,0,0.0,0.0,47,0.00,,,0.00,WUHU216HW,2013-01-26 04:29:00,
2013-01-25 23:34:00,19.6,2.5,29.58,North,0,0.0,0.0,47,0.00,,,0.00,WUHU216HW,2013-01-26 04:34:00,
2013-01-25 23:59:00,19.1,3.4,29.58,North,0,0.0,0.0,50,0.00,,,0.00,WUHU216HW,2013-01-26 04:59:00,